Location: Sunny Point
(33.0946°N, 85.0574°W)
Time: 13:25:27
(UTC+00:00)

PRISM - Visible Passes

Search period start: 12 July 2024 00:00
Search period end: 22 July 2024 00:00
Orbit: 495 x 513 km, 98.2° (Epoch: 11 July)

Date Brightness Start Highest point End Pass type
(mag) Time Alt. Az. Time Alt. Az. Time Alt. Az.
12 Jul ? 01:45:00 14° SE 01:47:49 39° ENE 01:51:18 10° N visible
13 Jul ? 01:26:32 10° ESE 01:29:27 22° ENE 01:32:22 10° NNE visible
13 Jul ? 03:01:08 13° SW 03:03:06 18° W 03:05:39 10° NW visible
14 Jul ? 02:42:28 18° SSW 02:44:30 31° W 02:47:50 10° NW visible
15 Jul ? 02:23:46 23° S 02:25:54 59° WSW 02:29:35 10° NNW visible
16 Jul ? 02:05:01 22° SSE 02:07:20 72° ENE 02:11:01 10° N visible
17 Jul ? 01:46:12 16° SE 01:48:44 37° ENE 01:52:10 10° N visible
17 Jul ? 03:22:23 10° W 03:22:34 10° W 03:22:44 10° W visible
18 Jul ? 01:27:21 10° ESE 01:30:08 21° ENE 01:32:58 10° NNE visible
18 Jul ? 03:02:07 14° SW 03:03:45 18° W 03:06:22 10° NW visible
19 Jul ? 02:43:13 22° SW 02:44:56 32° W 02:48:17 10° NNW visible
20 Jul ? 02:24:17 27° S 02:26:06 63° WSW 02:29:46 10° NNW visible
21 Jul ? 02:05:17 25° SSE 02:07:17 67° ENE 02:10:57 10° N visible
